Panama City, FL

8:54 PM CDT on March 26, 2017 (GMT -0500)
Northwest Florida Beaches International

Weather History for KECP - August, 2013

Change the Weather History Date:

Friday, August 23, 2013

  Actual Average Record
Temperature  
Mean Temperature 79 °F -  
Max Temperature 85 °F - 99 °F (2014)
Min Temperature 72 °F - 71 °F (2012)
Degree Days  
Heating Degree Days 0    
Cooling Degree Days 14    
Growing Degree Days 28 (Base 50)    
Moisture  
Dew Point 72 °F    
Average Humidity 85    
Maximum Humidity 100    
Minimum Humidity 70    
Precipitation  
Precipitation T in - 0.27 in (2016)
Month to date precipitation  
Year to date precipitation  
Sea Level Pressure  
Sea Level Pressure 30.04 in    
Wind  
Wind Speed 5 mph (ENE)    
Max Wind Speed 24 mph    
Max Gust Speed 30 mph    
Visibility 8 miles    
Events Rain , Thunderstorm    
T = Trace of Precipitation, MM = Missing Value Source: NWS Daily Summary

Daily Weather History Graph

Daily Weather History Graph

Search for Another Location

Airport or City:

Trip Planner

Search our weather history database for the weather conditions in past years. The results will help you decide how hot, cold, wet, or windy it might be!

Date:

Astronomy

Aug. 23, 2013 Rise Set
Actual Time 7:14 AM EDT 8:16 PM EDT
Civil Twilight 6:50 AM EDT 8:40 PM EDT
Nautical Twilight 6:20 AM EDT 9:10 PM EDT
Astronomical Twilight 5:50 AM EDT 9:40 PM EDT
Moon 9:53 PM EDT (8/23) 9:52 AM EDT (8/23)
Length of Visible Light 13h 50m
Length of Day
13h 01m
Waning Gibbous, 91% of the Moon is Illuminated
Aug 23
Waning Gibbous
Aug 28
Last Quarter
Sep 5
New
Sep 12
First Quarter
Sep 19
Full

Hourly Weather History & Observations

Time (EDT) Temp. Heat Index Dew Point Humidity Pressure Visibility Wind Dir Wind Speed Gust Speed Precip Events Conditions
12:53 AM 75.0 °F - 71.1 °F 87% 30.07 in 10.0 mi NE 4.6 mph - N/A   Clear
1:53 AM 73.9 °F - 71.1 °F 91% 30.06 in 10.0 mi East 4.6 mph - N/A   Clear
2:53 AM 73.9 °F - 70.0 °F 87% 30.04 in 10.0 mi NE 3.5 mph - N/A   Clear
3:53 AM 73.0 °F - 70.0 °F 90% 30.02 in 10.0 mi Calm Calm - N/A   Clear
4:53 AM 72.0 °F - 71.1 °F 97% 30.02 in 10.0 mi NE 3.5 mph - N/A   Clear
5:53 AM 72.0 °F - 70.0 °F 93% 30.03 in 10.0 mi NE 4.6 mph - N/A   Clear
6:53 AM 72.0 °F - 70.0 °F 93% 30.03 in 10.0 mi NE 4.6 mph - N/A   Clear
7:53 AM 73.0 °F - 71.1 °F 93% 30.04 in 10.0 mi NNE 3.5 mph - N/A   Clear
8:53 AM 75.9 °F - 72.0 °F 87% 30.04 in 10.0 mi NE 4.6 mph - N/A   Clear
9:53 AM 78.1 °F - 73.0 °F 84% 30.04 in 10.0 mi NE 6.9 mph - N/A   Partly Cloudy
10:53 AM 82.9 °F 89.4 °F 73.9 °F 74% 30.06 in 10.0 mi NE 5.8 mph - N/A   Partly Cloudy
11:50 AM 80.6 °F 85.4 °F 73.4 °F 79% 30.05 in 10.0 mi ENE 4.6 mph - N/A   Mostly Cloudy
11:53 AM 81.0 °F 86.2 °F 73.9 °F 79% 30.08 in 10.0 mi NE 5.8 mph - N/A   Mostly Cloudy
12:53 PM 84.0 °F 91.2 °F 73.9 °F 72% 30.06 in 10.0 mi NE 6.9 mph - N/A   Scattered Clouds
1:53 PM 84.9 °F 91.4 °F 73.0 °F 67% 30.04 in 10.0 mi NE 8.1 mph - N/A   Scattered Clouds
2:53 PM 84.9 °F 92.1 °F 73.9 °F 69% 30.04 in 10.0 mi East 4.6 mph - N/A   Scattered Clouds
3:18 PM 84.2 °F 90.9 °F 73.4 °F 70% 30.01 in 2.0 mi ESE 9.2 mph - N/A Thunderstorm Haze
3:20 PM 82.4 °F 88.2 °F 73.4 °F 74% 30.02 in 5.0 mi SE 16.1 mph 23.0 mph N/A Thunderstorm Haze
3:37 PM 75.2 °F - 71.6 °F 89% 30.03 in 1.0 mi SSW 8.1 mph - N/A Rain , Thunderstorm Heavy Rain
3:53 PM 75.0 °F - 71.1 °F 87% 30.06 in 1.0 mi South 5.8 mph - N/A Rain , Thunderstorm Heavy Thunderstorms and Rain
3:55 PM 75.2 °F - 71.6 °F 89% 30.03 in 1.0 mi SSE 5.8 mph - N/A Rain , Thunderstorm Heavy Thunderstorms and Rain
4:22 PM 73.4 °F - 71.6 °F 94% 30.04 in 2.0 mi South 10.4 mph - N/A Rain , Thunderstorm Light Thunderstorms and Rain
4:29 PM 73.4 °F - 71.6 °F 94% 30.03 in 2.0 mi South 8.1 mph - N/A Rain Light Rain
4:36 PM 73.4 °F - 73.4 °F 100% 30.03 in 3.0 mi Variable 3.5 mph - N/A Rain Rain
4:53 PM 73.9 °F - 73.9 °F 100% 30.05 in 4.0 mi Calm Calm - N/A Rain Rain
5:14 PM 73.4 °F - 73.4 °F 100% 30.01 in 3.0 mi SSW 8.1 mph - N/A Rain Rain
5:53 PM 73.9 °F - - N/A% 30.01 in 7.0 mi Calm Calm - N/A Rain Rain
6:01 PM 73.4 °F - - N/A% 29.97 in 7.0 mi Calm Calm - N/A Rain Light Rain
6:53 PM 73.9 °F - - N/A% 29.99 in 10.0 mi North 4.6 mph - N/A   Overcast
7:53 PM 73.9 °F - - N/A% 30.02 in 10.0 mi NNE 4.6 mph - 0.00 in   Mostly Cloudy
8:36 PM 73.4 °F - - N/A% 30.01 in 5.0 mi ESE 5.8 mph - N/A   Haze
8:53 PM 73.9 °F - - N/A% 30.04 in 10.0 mi SE 3.5 mph - N/A   Scattered Clouds
9:53 PM 73.9 °F - - N/A% 30.04 in 10.0 mi ENE 3.5 mph - N/A   Clear
10:53 PM 73.9 °F - - N/A% 30.06 in 10.0 mi NNE 3.5 mph - N/A   Clear
11:53 PM 73.9 °F - - N/A% 30.08 in 10.0 mi Calm Calm - N/A   Clear